London-Corbin, KY

8:58 PM EST on January 16, 2018 (GMT -0500)
London-Corbin / McKee

Weather History for KLOZ - October, 2013

Change the Weather History Date:

Tuesday, October 22, 2013

  Actual Average Record
Temperature  
Mean Temperature 49 °F 55 °F  
Max Temperature 55 °F 68 °F 81 °F (1978)
Min Temperature 42 °F 43 °F 21 °F (1987)
Degree Days  
Heating Degree Days 16 10  
Month to date heating degree days 107 158  
Since 1 July heating degree days 122 205  
Cooling Degree Days 0 0  
Month to date cooling degree days 39 17  
Year to date cooling degree days 1080 1184  
Moisture  
Dew Point 42 °F    
Average Humidity 80    
Maximum Humidity 96    
Minimum Humidity 63    
Precipitation  
Precipitation 0.10 in 0.11 in 1.66 in (1990)
Month to date precipitation 2.83 2.08  
Year to date precipitation 46.48  
Sea Level Pressure  
Sea Level Pressure 29.97 in    
Wind  
Wind Speed 3 mph (NNW)    
Max Wind Speed 12 mph    
Max Gust Speed 16 mph    
Visibility 8 miles    
Events Fog , Rain    
T = Trace of Precipitation, MM = Missing Value Source: NWS Daily Summary

Daily Weather History Graph

Daily Weather History Graph

Search for Another Location

Airport or City:

Trip Planner

Search our weather history database for the weather conditions in past years. The results will help you decide how hot, cold, wet, or windy it might be!

Date:

Astronomy

Oct. 22, 2013 Rise Set
Actual Time 7:50 AM EDT 6:50 PM EDT
Civil Twilight 7:24 AM EDT 7:16 PM EDT
Nautical Twilight 6:54 AM EDT 7:46 PM EDT
Astronomical Twilight 6:23 AM EDT 8:16 PM EDT
Moon 9:33 PM EDT (10/22) 11:14 AM EDT (10/22)
Length of Visible Light 11h 52m
Length of Day
10h 59m
Waning Gibbous, 87% of the Moon is Illuminated
Oct 22
Waning Gibbous
Oct 26
Last Quarter
Nov 3
New
Nov 10
First Quarter
Nov 17
Full

Hourly Weather History & Observations

Time (EDT) Temp. Windchill Dew Point Humidity Pressure Visibility Wind Dir Wind Speed Gust Speed Precip Events Conditions
12:53 AM 51.1 °F - 44.1 °F 77% 29.97 in 10.0 mi SSW 4.6 mph - N/A   Clear
1:53 AM 48.0 °F - 44.1 °F 86% 29.98 in 10.0 mi Calm Calm - N/A   Mostly Cloudy
2:53 AM 52.0 °F - 45.0 °F 77% 29.98 in 10.0 mi Calm Calm - N/A   Overcast
3:53 AM 52.0 °F - 45.0 °F 77% 29.98 in 10.0 mi Calm Calm - N/A   Overcast
4:53 AM 53.1 °F - 46.0 °F 77% 29.99 in 7.0 mi Calm Calm - 0.01 in Rain Rain
5:22 AM 51.8 °F - 46.4 °F 82% 30.00 in 8.0 mi WNW 3.5 mph - 0.03 in Rain Light Rain
5:51 AM 51.8 °F - 46.4 °F 82% 30.01 in 10.0 mi West 3.5 mph - 0.03 in Rain Light Rain
5:53 AM 51.1 °F - 46.9 °F 86% 30.00 in 10.0 mi WNW 3.5 mph - 0.03 in Rain Light Rain
6:22 AM 51.8 °F - 48.2 °F 88% 30.01 in 10.0 mi NNW 3.5 mph - 0.01 in Rain Light Rain
6:53 AM 50.0 °F - 46.0 °F 86% 30.00 in 10.0 mi NNW 8.1 mph - 0.01 in Rain Light Rain
7:26 AM 48.2 °F - 44.6 °F 87% 30.02 in 10.0 mi NNW 6.9 mph - 0.00 in Rain Light Rain
7:53 AM 48.0 °F - 44.1 °F 86% 30.03 in 8.0 mi NW 3.5 mph - 0.01 in Rain Light Rain
8:03 AM 48.2 °F - 44.6 °F 87% 30.03 in 9.0 mi North 3.5 mph - 0.01 in Rain Light Rain
8:27 AM 48.2 °F - 44.6 °F 87% 30.03 in 10.0 mi NNW 3.5 mph - 0.02 in Rain Light Rain
8:35 AM 48.2 °F - 44.6 °F 87% 30.03 in 8.0 mi NNW 3.5 mph - 0.02 in Rain Light Rain
8:53 AM 46.9 °F - 44.1 °F 90% 30.04 in 8.0 mi NNW 5.8 mph - 0.03 in Rain Light Rain
9:53 AM 45.0 °F 41.2 °F 42.1 °F 90% 30.05 in 10.0 mi NNE 6.9 mph - 0.00 in Rain Light Rain
10:37 AM 44.6 °F 40.2 °F 39.2 °F 81% 30.06 in 10.0 mi North 8.1 mph - 0.01 in   Overcast
10:53 AM 44.1 °F 40.1 °F 39.9 °F 85% 30.06 in 10.0 mi North 6.9 mph - 0.01 in   Overcast
11:53 AM 46.0 °F 44.8 °F 39.9 °F 79% 30.04 in 10.0 mi North 3.5 mph - N/A   Overcast
12:12 PM 46.4 °F - 39.2 °F 76% 30.03 in 10.0 mi Calm Calm - N/A   Overcast
12:53 PM 48.0 °F - 39.0 °F 71% 30.02 in 10.0 mi North 4.6 mph - N/A   Overcast
1:29 PM 48.2 °F - 37.4 °F 66% 30.00 in 10.0 mi North 5.8 mph - N/A   Overcast
1:53 PM 48.9 °F - 37.0 °F 64% 29.99 in 10.0 mi NE 3.5 mph - N/A   Overcast
2:44 PM 50.0 °F - 39.2 °F 66% 29.95 in 10.0 mi Calm Calm - N/A   Overcast
2:53 PM 51.1 °F - 39.0 °F 63% 29.94 in 10.0 mi SE 4.6 mph - N/A   Overcast
3:53 PM 52.0 °F - 39.0 °F 61% 29.92 in 10.0 mi ESE 4.6 mph - N/A   Mostly Cloudy
4:53 PM 54.0 °F - 41.0 °F 62% 29.91 in 10.0 mi Calm Calm - N/A   Clear
5:29 PM 53.6 °F - 42.8 °F 67% 29.91 in 10.0 mi South 6.9 mph - N/A   Mostly Cloudy
5:45 PM 51.8 °F - 42.8 °F 71% 29.91 in 10.0 mi South 4.6 mph - N/A   Scattered Clouds
5:53 PM 52.0 °F - 43.0 °F 71% 29.91 in 10.0 mi South 3.5 mph - N/A   Scattered Clouds
6:53 PM 51.1 °F - 42.1 °F 71% 29.90 in 10.0 mi WSW 3.5 mph - N/A   Clear
7:53 PM 48.0 °F - 43.0 °F 83% 29.90 in 10.0 mi Calm Calm - N/A   Clear
8:53 PM 44.1 °F - 41.0 °F 89% 29.91 in 10.0 mi Calm Calm - N/A   Clear
9:53 PM 43.0 °F - 39.9 °F 89% 29.91 in 2.5 mi Calm Calm - N/A   Mostly Cloudy
10:00 PM 42.8 °F - 39.2 °F 87% 29.90 in 1.5 mi Calm Calm - N/A   Mostly Cloudy
10:09 PM 42.8 °F - 39.2 °F 87% 29.89 in 0.2 mi Calm Calm - N/A Fog Fog
10:53 PM 43.0 °F - 41.0 °F 93% 29.89 in 0.5 mi Calm Calm - N/A Fog Fog
11:53 PM 42.1 °F - 39.9 °F 92% 29.88 in 0.5 mi Calm Calm - N/A Fog Fog
11:59 PM 42.8 °F - 39.2 °F 87% 29.87 in 2.5 mi Calm Calm - N/A   Overcast